DateTimeUTC,F1_A11,F1_S11,BsB_S11,BsG_S11,BsR_S11,BbsB_S11,BbsG_S11,BbsR_S11,BaB_A11,BaG_A11,BaR_A11,Tu_S11,T_S11,Uu_S11,U_S11,P_S11,T1_A11
2021-02-16T18:00:00Z,00000200,21000000,,,,,,,-000.47,0000.29,-000.15,17.7,23.8,,00.0,0627.6,31.1
2021-02-16T18:01:00Z,00000200,21000000,,,,,,,0000.09,-000.21,0000.01,17.7,23.8,,00.0,0627.6,31.1
2021-02-16T18:02:00Z,00000200,21000000,,,,,,,-000.23,-000.48,-000.30,17.7,23.8,,00.0,0627.6,31.1
2021-02-16T18:03:00Z,00000200,61000000,,,,,,,0000.07,-000.06,0000.08,17.7,23.9,,00.0,0627.7,31.1
2021-02-16T18:04:00Z,00000200,41000000,-000.30,-000.15,0000.11,0000.17,0000.15,-000.10,0000.22,-000.04,0000.14,17.8,23.8,,00.0,0628.5,31.1
2021-02-16T18:05:00Z,00000200,01000000,0000.39,-000.08,0000.06,0000.40,-000.13,0000.20,-000.08,0000.23,0000.07,17.8,23.8,,00.0,0628.6,31.1
2021-02-16T18:06:00Z,00000200,01000000,-000.21,-000.30,0000.18,0000.16,-000.04,0000.24,0000.09,0000.60,-000.06,17.9,23.8,,00.0,0628.6,31.1
2021-02-16T18:07:00Z,00000200,01000000,-000.08,0000.06,-000.02,0000.04,-000.01,0000.24,0000.40,-000.12,0000.40,18.0,23.8,,00.0,0628.6,31.1
2021-02-16T18:08:00Z,00000200,01000000,0000.04,0000.10,0000.18,0000.04,0000.16,0000.15,-000.23,0000.30,-000.13,18.1,23.9,,00.0,0628.6,31.1
2021-02-16T18:09:00Z,00000200,01000000,0000.52,-000.03,0000.23,0000.31,-000.05,0000.28,0000.51,-000.34,-000.10,18.1,23.9,,00.0,0628.6,31.1
2021-02-16T18:10:00Z,00000200,01000000,0000.62,-000.00,0000.16,-000.06,0000.20,0000.03,-000.25,0000.41,0000.47,18.2,23.9,,00.0,0628.6,31.1
2021-02-16T18:11:00Z,00000200,01000000,0000.51,-000.30,-000.11,-000.27,0000.12,-000.10,0000.33,-000.27,-000.11,18.1,23.9,,00.0,0628.6,31.1
2021-02-16T18:12:00Z,00000200,01000000,0000.26,-000.06,0000.10,0000.10,0000.21,0000.37,-000.19,-000.22,-000.19,18.1,23.9,,00.0,0628.6,31.1
2021-02-16T18:13:00Z,00000200,01000000,0000.06,-000.22,0000.12,-000.45,-000.02,0000.22,-000.05,0000.08,-000.39,18.0,23.9,,00.0,0628.6,31.1
2021-02-16T18:14:00Z,00000200,01000000,0000.27,-000.08,0000.09,0000.45,0000.02,-000.04,-000.03,0000.19,0000.35,18.0,23.9,,00.0,0628.6,31.1
2021-02-16T18:15:00Z,00000200,01000000,0001.00,-000.38,-000.17,0000.39,-000.03,0000.00,0000.10,0000.01,-000.21,18.0,23.9,,00.0,0628.6,31.1
2021-02-16T18:16:00Z,00000200,01000000,-000.07,-000.24,0000.04,-000.12,0000.00,0000.25,-000.06,-000.06,0000.43,17.9,23.9,,00.0,0628.5,31.1
2021-02-16T18:17:00Z,00000200,01000000,-000.07,-000.01,-000.06,0000.46,-000.01,0000.23,0000.10,0000.02,0000.00,17.9,23.8,,00.0,0628.5,31.1
2021-02-16T18:18:00Z,00000200,01000000,0000.56,0000.03,-000.18,-000.07,0000.19,0000.13,0000.20,0000.18,0000.01,17.9,23.8,,00.0,0628.5,31.1
2021-02-16T18:19:00Z,00000200,01000000,0000.33,0000.07,0000.30,0000.49,-000.06,0000.35,-000.34,0000.12,-000.18,17.8,23.8,,00.0,0628.4,31.1
2021-02-16T18:20:00Z,00000200,01000000,0000.27,-000.06,0000.07,-000.30,0000.18,0000.03,0000.37,-000.06,0000.27,17.8,23.8,,00.0,0628.4,31.1
2021-02-16T18:21:00Z,00000200,01000000,-000.14,-000.19,0000.01,-000.18,-000.14,-000.02,0000.38,0000.26,0000.32,17.8,23.8,,00.0,0628.4,31.0
2021-02-16T18:22:00Z,00000200,01000000,0000.05,-000.25,0000.09,-000.25,0000.41,-000.05,-000.26,-000.30,-000.32,17.7,23.8,,00.0,0628.3,31.0
2021-02-16T18:23:00Z,00000200,01000000,0000.29,-000.05,0000.04,-000.18,0000.19,0000.20,0000.25,0000.46,0000.20,17.7,23.7,,00.0,0628.4,31.0
2021-02-16T18:24:00Z,00000200,01000000,0000.39,-000.01,-000.14,0000.44,0000.22,0000.10,0000.08,0000.24,0000.27,17.7,23.7,,00.0,0628.3,31.0
2021-02-16T18:25:00Z,00000200,01000000,-000.21,-000.09,-000.24,0000.38,0000.24,-000.38,0000.48,-000.20,-000.53,17.6,23.7,,00.0,0628.3,31.0
2021-02-16T18:26:00Z,00000200,01000000,-000.19,-000.17,0000.03,-000.12,-000.32,0000.03,0000.08,0000.39,0000.46,17.6,23.7,,00.0,0628.3,31.0
2021-02-16T18:27:00Z,00000200,01000000,0000.50,0000.04,0000.23,-000.38,0000.02,0000.12,0000.24,-000.17,0000.07,17.5,23.6,,00.0,0628.4,31.0
2021-02-16T18:28:00Z,00000200,01000000,0000.24,0000.35,-000.19,0000.28,-000.07,-000.32,-000.09,0000.07,0000.04,17.4,23.6,,00.0,0628.4,31.0
2021-02-16T18:29:00Z,00000200,01000000,0000.44,0000.00,0000.05,0000.11,-000.06,0000.07,0000.01,0000.01,-000.03,17.4,23.6,,00.0,0628.4,31.0
2021-02-16T18:30:00Z,00000200,01000000,0000.08,0000.14,0000.04,0000.32,-000.08,-000.12,-000.29,0000.33,0000.15,17.4,23.6,,00.0,0628.4,31.0
2021-02-16T18:31:00Z,00000200,01000000,0000.11,0000.06,0000.20,0000.88,0000.15,0000.04,0000.23,-000.31,-000.12,17.3,23.6,,00.0,0628.5,31.0
2021-02-16T18:32:00Z,00000200,01000000,0000.20,-000.09,0000.05,0000.06,-000.01,-000.03,-000.07,-000.10,-000.32,17.3,23.6,,00.0,0628.5,31.0
2021-02-16T18:33:00Z,00000200,01000000,-000.35,0000.08,-000.11,-000.01,-000.20,-000.10,-000.05,0000.32,0000.40,17.3,23.6,,00.0,0628.5,31.0
2021-02-16T18:34:00Z,00000200,01000000,0000.45,-000.01,0000.13,0000.06,0000.08,-000.01,0000.34,-000.10,0000.15,17.3,23.5,,00.0,0628.5,31.0
2021-02-16T18:35:00Z,00000200,01000000,0000.64,-000.17,-000.05,-000.04,-000.06,-000.05,0000.08,-000.04,0000.17,17.3,23.5,00.0,00.0,0628.5,31.0
2021-02-16T18:36:00Z,00000200,01000000,-000.28,0000.12,-000.24,-000.00,0000.21,-000.14,-000.17,-000.08,-000.31,17.3,23.5,00.0,00.0,0628.4,31.0
2021-02-16T18:37:00Z,00000200,01000000,0000.63,-000.03,-000.00,-000.14,0000.02,0000.06,-000.16,0000.14,0000.19,17.3,23.5,00.0,00.0,0628.5,31.0
2021-02-16T18:38:00Z,00000200,01000000,0000.39,-000.14,0000.07,-000.18,0000.17,-000.11,0000.20,0000.34,-000.10,17.3,23.5,00.0,00.0,0628.5,31.0
2021-02-16T18:39:00Z,00000200,01000000,0000.06,-000.05,-000.24,0000.11,0000.15,0000.06,0000.36,-000.04,0000.16,17.3,23.5,,00.0,0628.5,31.0
2021-02-16T18:40:00Z,00000200,01000000,0000.78,-000.08,-000.23,-000.10,0000.13,0000.00,-000.01,0000.21,0000.30,17.3,23.5,00.0,00.0,0628.5,31.0
2021-02-16T18:41:00Z,00000200,01000000,0000.25,0000.13,-000.03,-000.32,0000.15,0000.11,0000.28,0000.19,0000.09,17.3,23.5,00.0,00.0,0628.5,31.0
2021-02-16T18:42:00Z,00000200,01000000,0000.52,-000.06,-000.20,0000.06,0000.08,-000.04,-000.27,-000.03,-000.01,17.3,23.5,00.0,00.0,0628.6,31.1
2021-02-16T18:43:00Z,00000200,01000000,0000.35,-000.09,-000.04,0000.59,0000.02,0000.22,-000.17,-000.12,-000.16,17.3,23.5,,00.0,0628.6,31.1
2021-02-16T18:44:00Z,00000200,01000000,0000.07,-000.27,0000.24,-000.16,-000.07,0000.11,0000.19,0000.11,-000.26,17.3,23.5,,00.0,0628.7,31.0
2021-02-16T18:45:00Z,00000200,01000000,0000.13,-000.27,-000.21,-000.08,0000.08,-000.16,-000.24,-000.43,-000.19,17.3,23.5,,00.0,0628.7,31.0
2021-02-16T18:46:00Z,00000200,01000000,0000.61,0000.09,-000.13,0000.36,-000.15,-000.05,-000.11,-000.28,0000.04,17.3,23.5,,00.0,0628.7,31.0
2021-02-16T18:47:00Z,00000200,01000000,0000.18,0000.05,-000.17,0000.07,-000.16,-000.18,0000.06,0000.14,-000.07,17.3,23.5,,00.0,0628.7,31.0
2021-02-16T18:48:00Z,00000200,01000000,0000.27,0000.21,-000.23,0000.14,-000.18,0000.18,-000.22,-000.23,0000.06,17.3,23.5,,00.0,0628.7,31.0
2021-02-16T18:49:00Z,00000200,01000000,0000.04,-000.29,-000.09,0000.53,-000.02,0000.16,0000.05,0000.20,0000.00,17.3,23.4,,00.0,0628.7,31.0
2021-02-16T18:50:00Z,00000200,01000000,0000.47,-000.07,0000.23,0000.38,0000.07,0000.07,-000.05,0000.05,0000.04,17.3,23.4,00.0,00.0,0628.7,31.0
2021-02-16T18:51:00Z,00000200,01000000,0000.60,0000.16,-000.05,0000.18,-000.12,-000.10,0000.08,-000.29,0000.03,17.2,23.4,,00.0,0628.7,31.0
2021-02-16T18:52:00Z,00000200,01000000,-000.22,0000.00,0000.23,0000.45,-000.35,0000.21,-000.20,0000.03,0000.02,17.2,23.4,,00.0,0628.7,31.0
2021-02-16T18:53:00Z,00000200,01000000,0000.91,-000.01,-000.02,0000.02,0000.26,0000.35,0000.21,-000.22,-000.46,17.2,23.4,,00.0,0628.8,31.0
2021-02-16T18:54:00Z,00000200,01000000,0000.65,-000.27,-000.02,0000.13,0000.03,0000.12,0000.04,0000.06,0000.18,17.2,23.4,,00.0,0628.8,31.0
2021-02-16T18:55:00Z,00000200,01000000,0000.47,0000.38,0000.21,0000.18,-000.02,0000.07,-000.25,-000.14,0000.04,17.1,23.3,,00.0,0628.8,31.0
2021-02-16T18:56:00Z,00000200,01000000,0000.58,0000.01,0000.10,0000.36,-000.23,-000.04,-000.02,0000.12,-000.20,17.1,23.3,00.0,00.0,0628.8,31.0
2021-02-16T18:57:00Z,00000200,41000000,,,,,,,0000.10,0000.06,0000.24,17.1,23.4,,00.0,0628.9,31.0
2021-02-16T18:58:00Z,00000200,61000000,,,,,,,-000.22,-000.13,-000.13,16.8,23.4,,00.0,0628.0,31.0
2021-02-16T18:59:00Z,00000200,21000000,,,,,,,-000.12,0000.09,0000.19,16.8,23.5,,00.0,0628.0,31.0
